Other Public Products
Issued by NWS Grand Forks, ND

Home | Current Version | Previous Version | Text Only | Print | Product List | Glossary On
Versions: 1 2 3 4 5 6 7 8 9 10 11 12 13 14 15 16 17 18 19 20 21 22 23 24 25 26 27 28 29 30 31 32 33 34 35 36 37 38 39 40 41 42 43 44 45 46 47 48 49 50
000
FPUS83 KFGF 290831
OPUFGF
PRAIRIE TO PINES WEATHER ROUNDUP
NATIONAL WEATHER SERVICE EASTERN NORTH DAKOTA/GRAND FORKS ND
300 AM CDT FRI APR 29 2016

 **SATELLITE DATA USED TO AUGMENT SKY COVER AT AUTOMATED STATIONS**
 *****  WEATHER ACROSS EASTERN NORTH DAKOTA  *****

CITY           SKY/WX    TMP DP  RH WIND       PRES   REMARKS
GRAND FORKS    CLOUDY    33  27  78 N6        30.17S
GRAND FORKS AF CLOUDY    35  28  75 N7        30.17S
GRAND CITY NWS NOT AVBL
BUXTON           N/A     40  27  60 N6          N/A
DEVILS LAKE    MOCLDY    37  24  59 N3        30.18F
FARGO          CLOUDY    37  28  70 E6        30.13F
WAHPETON ARPT  CLOUDY    37  34  87 SE6       30.16R
$$

 *****  WEATHER ACROSS CENTRAL AND WESTERN NORTH DAKOTA  *****

CITY           SKY/WX    TMP DP  RH WIND       PRES   REMARKS
JAMESTOWN      CLOUDY    36  28  73 NW3       30.14R
BISMARCK       PTCLDY    36  31  82 CALM      30.16S
MINOT          CLOUDY    41  20  43 CALM      30.18F
MINOT AFB      CLOUDY    40  21  46 NE5       30.18F
GARRISON         N/A     39  21  48 NE6       30.16F
WILLISTON      CLOUDY    39  25  57 N3        30.16F
DICKINSON      MOCLDY    36  25  64 E8        30.11F
HETTINGER      CLOUDY    37  34  89 CALM      30.13F
$$

 *****  OTHER OBSERVATIONS NORTHEAST NORTH DAKOTA  *****

CITY           SKY/WX    TMP DP  RH WIND       PRES   REMARKS
WALHALLA       FAIR      34  23  64 NW8       30.22S
LANGDON        FAIR      37  21  52 NE8       30.20S
CAVALIER       FAIR      37  25  60 NW6       30.20S
GRAFTON        FAIR      36  28  75 NW7       30.21S
CANDO          FAIR      32  23  69 N9        30.22R WCI  24
FORT TOTTEN      N/A     40  23  51 NE5       29.95S
ROLLA          FAIR      32  18  55 NW8       30.21S WCI  25
RUGBY          FAIR      32  23  69 E7        30.19F
 ***** THE ABOVE OBSERVATIONS ARE NON NWS ARE NOT QUALITY
        CONTROLLED AND MAY MIS-REPORT RAIN FOR SNOW...
$$

 *****  OTHER OBSERVATIONS SOUTHEAST NORTH DAKOTA *****

CITY           SKY/WX    TMP DP  RH WIND       PRES   REMARKS
COOPERSTOWN    NOT AVBL
VALLEY CITY    FAIR      39  27  60 N5        30.16S
OAKES            N/A    N/A N/A N/A MISG        N/A
GWINNER        FAIR      41  37  87 W10       30.15R
SHEYENNE NWR     N/A     31  29  94 CALM      29.95S
BUFFALO          N/A     40  24  52 NE8         N/A
WYNDMERE         N/A     39  37  93 S6          N/A
 ***** THE ABOVE OBSERVATIONS ARE NON NWS ARE NOT QUALITY
       CONTROLLED AND MAY MIS-REPORT RAIN FOR SNOW...
$$

  *****  WEATHER ACROSS NORTHERN MINNESOTA  *****

CITY           SKY/WX    TMP DP  RH WIND       PRES   REMARKS
FLAG ISLAND    CLEAR     39  36  87 N3        30.19S
WARROAD        CLEAR     36  30  80 CALM      30.20S
ROSEAU         CLOUDY    36  28  75 NE3       30.19S
HALLOCK        CLOUDY    37  25  60 NE5       30.19S
THF RVR FALLS  PTCLDY    37  27  65 NE7       30.18S
HALSTAD        NOT AVBL
FOSSTON        CLOUDY    36  27  69 NE6       30.16S
BAUDETTE       CLOUDY    36  28  73 CALM      30.17F
WASKISH        PTCLDY    37  30  75 NE3       30.16S
CROOKSTON      CLOUDY    39  28  65 E9        30.17S
$$
  *****  WEATHER ACROSS CENTRAL AND WEST MINNESOTA  *****

CITY           SKY/WX    TMP DP  RH WIND       PRES   REMARKS
BEMIDJI        CLOUDY    37  27  68 N3        30.14F
PARK RAPIDS    CLOUDY    37  30  75 CALM      30.14R
WADENA         CLOUDY    36  34  93 CALM      30.15S
DETROIT LAKES  CLOUDY    39  36  87 CALM      30.15S
MOORHEAD       CLOUDY    37  36  93 SE3       30.15R
FERGUS FALLS   CLOUDY    39  37  93 SE3       30.14S
ELBOW LAKE     FAIR      39  38  94 CALM      30.16S
MORRIS MN      CLOUDY    37  37 100 N3        30.14S
STAPLES        CLOUDY    34  34 100 W5        30.15S
WHEATON        CLOUDY    41  39  93 CALM      30.18R
$$
  *****  WEATHER ELSEWHERE ACROSS MINNESOTA  *****

CITY           SKY/WX    TMP DP  RH WIND       PRES   REMARKS
DULUTH         CLOUDY    31  25  78 N8        30.13S WCI  23
INTRNTL FALLS  PTCLDY    36  31  82 NE5       30.16F
ELY            CLOUDY    34  28  80 CALM      30.16R
CLOQUET        CLOUDY    28  25  86 CALM      30.14S
BRAINERD       CLOUDY    33  25  72 CALM      30.15R
HIBBING        CLOUDY    26  24  92 CALM      30.15S
ALEXANDRIA     CLOUDY    38  36  92 CALM      30.15F
SAINT CLOUD    CLOUDY    37  36  96 CALM      30.14S
MINNEAPOLIS    CLOUDY    35  34  96 N5        30.15R
$$

  *****  WEATHER ACROSS SOUTH DAKOTA  *****

CITY           SKY/WX    TMP DP  RH WIND       PRES   REMARKS
SIOUX FALLS    CLOUDY    39  37  92 N5        30.12F FOG
BROOKINGS      MOCLDY    36  34  92 CALM      30.14R
WATERTOWN      PTCLDY    37  34  89 CALM      30.14S
HURON          CLOUDY    38  36  92 NW3       30.15F
SISSETON         N/A     40  38  93 SW3       30.14R
ABERDEEN       MOCLDY    38  35  89 SW6       30.17R
MITCHELL       CLOUDY    40  37  89 NE3       30.15F
PIERRE         CLOUDY    41  36  82 N6        30.11F
MOBRIDGE       CLOUDY    42  39  89 SE5       30.12S
RAPID CITY     CLOUDY    36  34  92 N7        30.10F
$$

  *****  SOME WEATHER IN NEARBY STATES *****

CITY           SKY/WX    TMP DP  RH WIND       PRES   REMARKS
GLASGOW MT     CLOUDY    36  32  85 NE3       30.13F
GREAT FALLS MT CLOUDY    37  32  82 E9        30.01F
CHEYENNE WY    CLOUDY    32  31  96 SE10      30.02F WCI  24
SCOTTSBLUFF NE CLOUDY    35  32  88 NE8       30.10S
OMAHA NE       CLOUDY    45  42  89 NW5       30.12S
DES MOINES IA  CLOUDY    48  43  82 N8        30.08S
DAVENPORT IA   CLOUDY    44  42  93 N10       30.05R FOG
CHICAGO IL     LGT RAIN  42  41  96 N8        30.00F FOG
EAU CLAIRE WI  CLOUDY    39  38  96 NW3       30.13R
LA CROSSE WI   CLOUDY    40  36  86 N7        30.10S
$$

  *****  SOME NATIONAL WEATHER *****

CITY           SKY/WX    TMP DP  RH WIND       PRES   REMARKS
LA GUARDIA NY  CLOUDY    50  34  54 E7        30.05R
RALEIGH NC     MOCLDY    62  60  93 E6        29.94R
ATLANTA GA     CLEAR     68  58  70 W5        29.98R
NEW ORLEANS LA PTCLDY    73  70  90 SE7       29.90F
OKLAHOMA CITY  LGT RAIN  58  53  84 NE17      29.83F
ALBUQUERQUE NM CLOUDY    53  26  35 NW12      29.84R
SALT LAKE CITY CLOUDY    48  33  56 CALM      29.84S
LOS ANGELES CA PTCLDY    58  51  78 E8        29.97S
BOISE ID       CLOUDY    52  36  54 NW10      29.89R
SEATTLE WA     CLOUDY    52  43  71 SW8       30.10S
$$

*** WEATHER ACROSS MANITOBA...SASKATCHEWAN AND ONTARIO ***
                ***ONTARIO***

CITY           SKY/WX    TMP DP  RH WIND       PRES   REMARKS
GERALDTON      PTCLDY    28  25  86 E3        30.18F
THUNDER BAY    CLEAR     28  27  93 W5        30.17R WCI  23
SIOUX LOOKOUT  NOT AVBL
TORONTO        CLOUDY    43  21  42 E13       30.07S
BIG TROUT LK   CLOUDY    28  27  93 VRB2      30.29S
PICKLE LAKE    NOT AVBL
DRYDEN         CLOUDY    41  30  65 NE6       30.19R
KENORA         CLEAR     37  30  75 N7        30.20S
$$
                *** MANITOBA***

CITY           SKY/WX    TMP DP  RH WIND       PRES   REMARKS
BRANDON        CLEAR     34  18  51 NE9       30.24S
DAUPHIN        CLEAR     23  16  74 W3        30.28S
ISLAND LAKE    CLEAR     30  14  51 VRB2      30.33S
PILOT MOUND      N/A     37  14  38 NE10        N/A
THE PAS        CLEAR     30  23  74 S5        30.29S
THOMPSON       MOCLDY    37  16  41 E2        30.32R
WINNIPEG       CLEAR     32  21  64 N5        30.23F
LYNN LAKE      MOCLDY    34  25  69 S3        30.20S
CHURCHILL      CLEAR     21  21 100 E8        30.45R WCI  12
GILLAM         CLEAR     27  18  69 VRB2      30.40R
$$
                ***SASKATCHEWAN***

CITY           SKY/WX    TMP DP  RH WIND       PRES   REMARKS
ESTEVAN        CLOUDY    34  18  51 E7        30.20S
KINDERSLEY     PTCLDY    39  23  52 E14       30.09F
LLOYDMINSTER   PTCLDY    39  27  60 SE7       30.09S
PRINCE ALBERT  MOCLDY    36  30  80 NE6       30.20S
REGINA         PTCLDY    36  16  44 SE12      30.20S
YORKTON        CLEAR     34  23  64 SE6       30.25S   C1F1C2F2C3F3C4F4C5F5C6F6C7F7C8F8C9F9CaFaCbFbCcFcCdFdCe!


USA.gov is the U.S. government's official web portal to all federal, state and local government web resources and services.